Lamar, CO

1:57 AM MST on December 11, 2019 (GMT -0700)
Lamar Municipal

Weather History for KLAA - October, 2019

Change the Weather History Date:

Saturday, October 26, 2019

  Actual Average Record
Temperature  
Mean Temperature 48 °F 49 °F  
Max Temperature 75 °F 66 °F 90 °F (1922)
Min Temperature 21 °F 31 °F 10 °F (1997)
Degree Days  
Heating Degree Days 17 16  
Month to date heating degree days 357 296  
Since 1 July heating degree days 363 379  
Cooling Degree Days 0 0  
Month to date cooling degree days 1 8  
Year to date cooling degree days 1406 1120  
Moisture  
Dew Point 28 °F    
Average Humidity 54    
Maximum Humidity 92    
Minimum Humidity 16    
Precipitation  
Precipitation 0.00 in 0.02 in 1.62 in (2006)
Month to date precipitation 0.13 0.70  
Year to date precipitation 7.88 14.32  
Sea Level Pressure  
Sea Level Pressure 29.74 in    
Wind  
Wind Speed 7 mph (SW)    
Max Wind Speed 26 mph    
Max Gust Speed 38 mph    
Visibility 10 miles    
Events      
T = Trace of Precipitation, MM = Missing Value Source: NWS Daily Summary

Daily Weather History Graph

Daily Weather History Graph

Search for Another Location

Airport or City:

Astronomy

Oct. 26, 2019 Rise Set
Actual Time 7:10 AM MDT 5:58 PM MDT
Civil Twilight 6:43 AM MDT 6:25 PM MDT
Nautical Twilight 6:12 AM MDT 6:56 PM MDT
Astronomical Twilight 5:41 AM MDT 7:27 PM MDT
Moon 5:11 AM MDT (10/26) 5:33 PM MDT (10/26)
Length of Visible Light 11h 42m
Length of Day
10h 48m
Waning Crescent, 3% of the Moon is Illuminated
Oct 26
Waning Crescent
Oct 27
New
Nov 4
First Quarter
Nov 12
Full
Nov 19
Last Quarter

Hourly Weather History & Observations

Time (MDT) Temp. Windchill Dew Point Humidity Pressure Visibility Wind Dir Wind Speed Gust Speed Precip Events Conditions
12:53 AM 30.0 °F 22.4 °F 26.1 °F 85% 29.98 in 10.0 mi SW 8.1 mph - N/A   Clear
1:53 AM 28.9 °F 22.8 °F 26.1 °F 89% 29.95 in 10.0 mi West 5.8 mph - N/A   Clear
2:53 AM 28.0 °F 19.3 °F 25.0 °F 88% 29.92 in 10.0 mi SSW 9.2 mph - N/A   Clear
3:53 AM 26.1 °F 21.9 °F 24.1 °F 92% 29.89 in 10.0 mi WSW 3.5 mph - N/A   Clear
4:53 AM 26.1 °F - 23.0 °F 88% 29.87 in 10.0 mi Calm Calm - N/A   Clear
6:53 AM 21.9 °F 12.5 °F 19.9 °F 92% 29.88 in 10.0 mi SSW 8.1 mph - N/A   Clear
7:53 AM 28.9 °F 23.9 °F 26.1 °F 89% 29.86 in 10.0 mi WSW 4.6 mph - N/A   Clear
8:53 AM 41.0 °F 35.2 °F 30.9 °F 67% 29.83 in 10.0 mi West 9.2 mph - N/A   Clear
9:53 AM 46.9 °F - 33.1 °F 59% 29.80 in 10.0 mi WNW 6.9 mph - N/A   Clear
10:53 AM 54.0 °F - 33.1 °F 45% 29.77 in 10.0 mi West 5.8 mph - N/A   Clear
11:53 AM 61.0 °F - 32.0 °F 34% 29.71 in 10.0 mi SW 8.1 mph - N/A   Clear
12:53 PM 66.9 °F - 30.9 °F 26% 29.68 in 10.0 mi Variable 4.6 mph - N/A   Clear
1:53 PM 70.0 °F - 30.0 °F 23% 29.63 in 10.0 mi SSW 6.9 mph - N/A   Clear
2:53 PM 72.0 °F - 30.0 °F 21% 29.62 in 10.0 mi WSW 5.8 mph - N/A   Clear
3:53 PM 73.9 °F - 28.0 °F 18% 29.60 in 10.0 mi South 5.8 mph - N/A   Clear
4:53 PM 75.0 °F - 26.1 °F 16% 29.58 in 10.0 mi South 5.8 mph - N/A   Clear
5:53 PM 64.9 °F - 27.0 °F 24% 29.59 in 10.0 mi SSE 6.9 mph - N/A   Clear
6:53 PM 50.0 °F - 28.0 °F 43% 29.65 in 10.0 mi East 6.9 mph - N/A   Clear
7:53 PM 44.1 °F 42.5 °F 28.0 °F 53% 29.65 in 10.0 mi ESE 3.5 mph - N/A   Clear
8:53 PM 50.0 °F - 28.0 °F 43% 29.60 in 10.0 mi ESE 3.5 mph - N/A   Clear
9:53 PM 45.0 °F 41.8 °F 30.9 °F 58% 29.60 in 10.0 mi NE 5.8 mph - N/A   Clear
10:53 PM 50.0 °F - 30.0 °F 46% 29.62 in 10.0 mi North 8.1 mph 28.8 mph N/A   Clear
11:53 PM 45.0 °F 36.2 °F 34.0 °F 65% 29.70 in 10.0 mi NNE 24.2 mph 32.2 mph N/A   Clear